www.pogodaiklimat.ru

Погода и климат >> Архив погоды >> Иран >> Kahnuj


ПОГОДА в Kahnuj

  • Прогноз погоды в Kahnuj
  • Монитор погоды в Kahnuj
  • Климат города

АРХИВ ПОГОДЫ в Kahnuj

Время (UTC), дата Ветер
(напр.,м/с)
 
Видим.   Явления Облачность Т
(С)
Тd
(С)
f
(%)
Тe
(С)
Тes
(С)
Комфортность P
(гПа)
Po
(гПа)
Тmin
(С)
Tmax
(С)
R
(мм)
R24
(мм)
S
(см)
03 16.09 штиль 0 10 км ясно +25.9 +10.0 37 +27 +28 жарко 1002.6 951.7 +25.0
06 16.09 штиль 0 10 км ясно +36.4 +10.0 20 +35 +52 опасность
солнечного
удара
1002.9 952.6
09 16.09 штиль 0 10 км ясно +40.0 +9.8 16 +38 +61 опасность
солнечного
удара
1000.3 950.2
12 16.09 З 3 10 км ясно +40.8 +10.4 16 +39 +43 очень
жарко
998.0 947.9
15 16.09 З 5 10 км ясно +36.0 +14.3 27 +37 +37 душно 999.1 948.4 +41.1
18 16.09 З 4 10 км ясно +32.6 +17.0 39 +36 +36 очень
душно
1000.1 950.0
21 16.09 З 4 10 км ясно +30.2 +17.4 46 +34 +34 очень
душно
999.4 949.4
00 17.09 З 3 10 км ясно +28.9 +15.7 45 +32 +32 душно 998.9 948.8
03 17.09 З 2 10 км ясно +26.6 +15.1 49 +29 +30 жарко 1000.8 950.0 +26.4
06 17.09 ЮЗ 8 10 км ясно +33.9 +15.5 33 +36 +38 душно 1001.1 950.7
09 17.09 ЮЗ 8 10 км ясно +38.6 +15.5 26 +40 +43 очень
душно
999.2 949.1
12 17.09 ЮЗ 9 10 км ясно +39.3 +16.0 26 +41 +42 опасность
перегрева
997.5 947.4
15 17.09 ЮЗ 8 10 км ясно +35.1 +16.1 32 +37 +37 очень
душно
998.6 947.9 +40.0
18 17.09 ЮЗ 5 10 км ясно +31.8 +18.0 44 +36 +36 очень
душно
1000.4 950.1
21 17.09 ЮЗ 7 10 км ясно +29.4 +19.8 56 +35 +35 очень
душно
999.9 949.7
00 18.09 ЮЗ 6 10 км ясно +27.6 +20.3 64 +34 +34 очень
душно
999.7 949.5
03 18.09 ЮЗ 4 10 км ясно +27.4 +20.8 67 +34 +35 очень
душно
1001.0 950.4 +26.3
06 18.09 ЮЗ 8 10 км ясно +32.8 +20.4 48 +39 +42 очень
душно
1002.4 951.9
09 18.09 ЮЗ 10 10 км ясно +37.7 +20.9 38 +44 +45 опасность
перегрева
1000.0 949.8
12 18.09 ЮЗ 10 10 км ясно +39.3 +20.0 33 +45 +45 опасность
перегрева
998.0 947.8
15 18.09 З 8 10 км ясно +34.4 +18.5 39 +39 +39 очень
душно
999.1 948.5 +39.9
18 18.09 З 7 10 км ясно +31.0 +18.3 47 +36 +36 очень
душно
1001.8 951.1
21 18.09 З 7 10 км ясно +28.7 +18.0 52 +33 +33 очень
душно
1001.5 950.6
00 19.09 З 3 10 км ясно +28.5 +17.6 52 +33 +33 очень
душно
1000.9 950.6
03 19.09 ЮЗ 5 10 км ясно +26.5 +17.3 57 +31 +31 душно 1002.6 951.7 +26.4
06 19.09 ЮЗ 6 10 км ясно +32.9 +18.5 43 +38 +43 очень
душно
1003.4 952.7
09 19.09 ЮЗ 5 10 км ясно +38.6 +17.6 29 +41 +50 опасность
перегрева
1000.5 950.2
12 19.09 З 7 10 км ясно +39.5 +19.2 31 +44 +45 опасность
перегрева
998.0 948.0
15 19.09 З 8 10 км ясно +34.4 +19.6 42 +40 +40 очень
душно
999.5 948.8 +40.3
18 19.09 З 3 10 км ясно +31.9 +20.4 51 +39 +39 очень
душно
1000.9 950.4
21 19.09 З 4 10 км ясно +29.1 +21.0 62 +37 +37 очень
душно
949.9
00 20.09 З 4 10 км ясно +27.1 +21.5 71 +34 +34 очень
душно
1000.0 949.7
03 20.09 З 4 10 км ясно +27.3 +21.2 69 +34 +35 очень
душно
1001.6 950.9 +26.7
06 20.09 ЮЗ 3 10 км ясно +34.6 +20.5 44 +41 +51 опасность
перегрева
1002.0 951.7
09 20.09 Ю 4 10 км ясно +41.1 +7.2 13 +39 +50 очень
жарко
1000.8 950.5
12 20.09 Ю 3 10 км ясно +42.1 +5.2 11 +39 +43 очень
жарко
998.8 948.5
15 20.09 Ю 5 10 км ясно +39.4 +4.2 12 +36 +36 очень
жарко
999.5 948.9 +42.9
18 20.09 З 2 10 км ясно +35.9 +5.2 15 +33 +33 жарко 1001.4 951.1
21 20.09 штиль 0 10 км ясно +32.4 +13.5 32 +39 +39 очень
душно
1000.8 950.7
00 21.09 З 2 10 км ясно +30.9 +21.2 56 +38 +38 очень
душно
1000.3 950.6
03 21.09 З 3 10 км ясно +28.9 +20.7 61 +36 +36 очень
душно
1002.6 952.3 +28.8
06 21.09 ЮВ 2 8000 м мгла ясно +35.9 +17.3 33 +39 +51 опасность
солнечного
удара
1003.9 953.8
09 21.09 Ю 5 9000 м мгла ясно +39.9 +8.7 15 +38 +46 очень
жарко
1002.0 951.9
12 21.09 Ю 3 10 км 6/3 1350 м
[Sc diur, vesp Cs]
+39.8 +8.7 15 +38 +40 очень
жарко
1000.2 950.0
15 21.09 СЗ 4 10 км 4/4 1200 м
[Sc diur, vesp]
+36.8 +9.7 19 +35 +35 очень
жарко
1001.4 950.8 +40.6
18 21.09 С 3 10 км ясно +32.6 +9.2 24 +32 +32 жарко 1003.2 952.7
21 21.09 ЮЗ 3 10 км ясно +31.8 +14.3 35 +34 +34 душно 1002.5 952.4
00 22.09 штиль 0 10 км ясно +30.3 +13.3 35 +32 +32 жарко 1002.1 951.9
03 22.09 штиль 0 10 км ясно +26.0 +12.5 43 +28 +29 жарко 1004.5 953.5 +25.4
06 22.09 ЮВ 3 10 км ясно +36.5 +10.2 20 +35 +45 очень
жарко
1005.1 954.6
09 22.09 ЮВ 8 10 км ясно +40.0 +8.6 15 +38 +41 очень
жарко
1002.7 952.4
12 22.09 ЮВ 8 10 км 5/3 1050 м
[Cb calv Ac trans]
+40.5 +8.6 15 +39 +39 очень
жарко
1000.8 950.6
15 22.09 ЮВ 5 10 км 8/5 1050 м
[Cb calv Ac As]
+38.0 +7.6 16 +36 +36 очень
жарко
1002.3 951.5 +41.3
18 22.09 ЮЗ 3 10 км 5/3 1200 м
[Cu hum Ac As]
+35.2 +13.1 26 +35 +35 очень
жарко
1003.6 953.4

 

Местоположение метеостанции Kahnuj (Иран): широта 27.97 долгота 57.70 высота над уровнем моря 470 м.

В архиве по умолчанию представлена погода в Kahnuj за последнюю неделю. Архивные данные за месяц целиком и за предыдущие месяцы, начиная с января 2011 года, Вы можете получить, выбрав интересующий диапазон дат из раскрывающегося списка и нажав кнопку "Ввод!".


*Определитесь, кто Вы:
робот инопланетянин человек

Внимание! Время в таблицах - всемирное. Для получения местного времени необходимо прибавить поправку, которая в Kahnuj равна 3.5 ч.

Смотрите также архив погоды в соседних городах и на ближайших метеорологических станциях:

Погода в Bam (Иран) (143 км)
Погода в Bandarabbass (Иран) (155 км)
Погода в Baft (Иран) (178 км)
Погода в Khasab (Оман) (243 км)
Погода в Khasab Airport (Оман) (248 км)
Погода в Sirjan (Иран) (255 км)
Погода в Jask (Иран) (260 км)
Погода в Kerman (Иран) (263 км)
Погода в Diba (Оман) (298 км)
Погода в Iranshahr (Иран) (308 км)

Пояснения к столбцам:

Ветер - указаны скорость ветра в м/с - средняя за 10 мин, порывы в срок и между сроками (в фигурных скобках) и направление, откуда дует ветер: С - северный, СВ - северо-восточный, В - восточный, ЮВ - юго-восточный, Ю - южный, ЮЗ - юго-западный, З - западный, СЗ - северо-западный.
Видимость - горизонтальная дальность видимости в метрах или километрах. При видимости от 1 до 10 км при отсутствии осадков обычно наблюдается дымка, при ухудшении видимости до 1 км и менее - туман. В сухую погоду видимость может ухудшаться дымом, пылью или мглою.
Явления - указаны атмосферные явления, наблюдавшиеся в срок или в последний час перед сроком; фигурными скобками обозначены явления, наблюдавшиеся между сроками (за 1-3 часа до срока); квадратными скобками обозначены град или гололедные отложения с указанием их диаметра в мм.
Облачность - указаны через наклонную черту общая и нижняя облачность в баллах и высота нижней границы облаков в метрах; квадратными скобками обозначены формы облаков: Ci - перистые, Cs - перисто-слоистые, Cc - перисто-кучевые, Ac - высококучевые, As - высокослоистые, Sc - слоисто-кучевые, Ns - слоисто-дождевые, Cu - кучевые, Cb - кучево-дождевые. Подробнее классификацию облаков см. в Атласе облаков (PDF).
T - Температура воздуха - температура, измеренная на высоте 2 м над землей.
Td - Температура точки росы - температура, при понижении до которой содержащийся в воздухе водяной пар достигнет насыщения.
f - Относительная влажность воздуха - влажноcть воздуха, измеренная на высоте 2 м над землей.
Te - Эффективная температура - температура, которую ощущает одетый по сезону человек в тени. Характеристика душности погоды. При расчете учитывается влияние влажности воздуха и скорости ветра на теплоощущения человека.
Tes - Эффективная температура на солнце - температура, которую ощущает человек, с поправкой на солнечный нагрев. Характеристика знойности погоды. Зависит от высоты солнца над горизонтом, облачности и скорости ветра. Ночью, в пасмурную погоду, а также при ветре 12 м/с и более поправка равна нулю.
P - Атмосферное давление - приведенное к уровню моря атмосферное давление.
Po - Атмосферное давление - измеренное на уровне метеостанции атмосферное давление.
Tmin - Минимальная температура - минимум температуры воздуха на высоте 2 м над землей.
Tmax - Максимальная температура - максимум температуры воздуха на высоте 2 м над землей.
R - Количество осадков - Количество выпавших осадков за период времени, мм. При наведении курсора мыши на число - период времени, за который выпало указанное количество осадков.
R24 - Количество осадков - Количество выпавших осадков за 24 часа, мм.
S - Снежный покров - Высота снежного покрова, см. При наведении курсора мыши на число - состояние снежного покрова и степень покрытия местности в баллах.